Time,TemperatureF,DewpointF,PressureIn,WindDirection,WindDirectionDegrees,WindSpeedMPH,WindSpeedGustMPH,Humidity,HourlyPrecipIn,Conditions,Clouds,dailyrainin,SoftwareType,DateUTC
2013-02-17 00:00:00,26.8,6.8,29.75,NE,45,1.6,3.1,42,0.00,,,0.00,pywws,2013-02-17 05:00:00,
2013-02-17 00:02:00,26.8,6.8,29.75,NW,315,3.1,4.5,42,0.00,,,0.00,pywws,2013-02-17 05:02:00,
2013-02-17 00:05:00,26.8,6.8,29.75,NNE,22,3.1,4.5,42,0.00,,,0.00,pywws,2013-02-17 05:05:00,
2013-02-17 00:11:00,26.6,6.6,29.74,North,0,3.1,3.8,42,0.00,,,0.00,pywws,2013-02-17 05:11:00,
2013-02-17 00:16:00,26.6,6.6,29.74,NNE,22,3.8,5.4,42,0.00,,,0.00,pywws,2013-02-17 05:16:00,
2013-02-17 00:22:00,26.6,6.6,29.74,NW,315,3.1,5.4,42,0.00,,,0.00,pywws,2013-02-17 05:22:00,
2013-02-17 00:28:00,26.4,7.0,29.74,North,0,3.1,3.8,43,0.00,,,0.00,pywws,2013-02-17 05:28:00,
2013-02-17 00:33:00,26.4,7.0,29.74,NW,315,1.6,3.1,43,0.00,,,0.00,pywws,2013-02-17 05:33:00,
2013-02-17 00:39:00,26.4,7.0,29.74,North,0,3.8,5.4,43,0.00,,,0.00,pywws,2013-02-17 05:39:00,
2013-02-17 00:44:00,26.2,6.8,29.74,North,0,2.2,4.5,43,0.00,,,0.00,pywws,2013-02-17 05:44:00,
2013-02-17 00:50:00,26.1,6.7,29.74,NW,315,3.1,3.8,43,0.00,,,0.00,pywws,2013-02-17 05:50:00,
2013-02-17 00:56:00,26.1,6.1,29.73,East,90,2.2,3.8,42,0.00,,,0.00,pywws,2013-02-17 05:56:00,
2013-02-17 01:01:00,25.9,6.0,29.74,North,0,3.1,3.8,42,0.00,,,0.00,pywws,2013-02-17 06:01:00,
2013-02-17 01:07:00,25.9,6.0,29.73,ENE,68,3.1,5.4,42,0.00,,,0.00,pywws,2013-02-17 06:07:00,
2013-02-17 01:13:00,25.7,5.8,29.72,North,0,2.2,3.8,42,0.00,,,0.00,pywws,2013-02-17 06:13:00,
2013-02-17 01:18:00,25.7,5.8,29.72,NE,45,3.8,6.0,42,0.00,,,0.00,pywws,2013-02-17 06:18:00,
2013-02-17 01:24:00,25.5,5.7,29.72,North,0,1.6,3.1,42,0.00,,,0.00,pywws,2013-02-17 06:24:00,
2013-02-17 01:29:00,25.5,5.1,29.72,NE,45,3.8,5.4,41,0.00,,,0.00,pywws,2013-02-17 06:29:00,
2013-02-17 01:35:00,25.3,3.9,29.71,NW,315,3.1,4.5,39,0.00,,,0.00,pywws,2013-02-17 06:35:00,
2013-02-17 01:40:00,25.3,4.4,29.72,NNW,338,3.1,4.5,40,0.00,,,0.00,pywws,2013-02-17 06:40:00,
2013-02-17 01:46:00,25.2,4.3,29.72,NW,315,3.1,4.5,40,0.00,,,0.00,pywws,2013-02-17 06:46:00,
2013-02-17 01:52:00,25.0,2.4,29.72,NE,45,3.1,4.5,37,0.00,,,0.00,pywws,2013-02-17 06:52:00,
2013-02-17 01:57:00,25.0,3.6,29.72,NE,45,2.2,3.8,39,0.00,,,0.00,pywws,2013-02-17 06:57:00,
2013-02-17 02:03:00,25.0,4.1,29.72,NE,45,4.5,9.8,40,0.00,,,0.00,pywws,2013-02-17 07:03:00,
2013-02-17 02:08:00,24.8,2.8,29.72,NE,45,3.8,6.0,38,0.00,,,0.00,pywws,2013-02-17 07:08:00,
2013-02-17 02:14:00,24.8,3.4,29.73,North,0,2.2,3.1,39,0.00,,,0.00,pywws,2013-02-17 07:14:00,
2013-02-17 02:20:00,24.8,3.4,29.73,NW,315,3.1,6.9,39,0.00,,,0.00,pywws,2013-02-17 07:20:00,
2013-02-17 02:25:00,24.6,4.3,29.72,NE,45,2.2,3.8,41,0.00,,,0.00,pywws,2013-02-17 07:25:00,
2013-02-17 02:31:00,24.6,3.2,29.72,NE,45,2.2,5.4,39,0.00,,,0.00,pywws,2013-02-17 07:31:00,
2013-02-17 02:36:00,24.6,2.7,29.72,NNE,22,3.1,4.5,38,0.00,,,0.00,pywws,2013-02-17 07:36:00,
2013-02-17 02:42:00,24.6,4.3,29.72,ENE,68,3.1,3.8,41,0.00,,,0.00,pywws,2013-02-17 07:42:00,
2013-02-17 02:48:00,24.4,3.1,29.71,North,0,1.6,3.1,39,0.00,,,0.00,pywws,2013-02-17 07:48:00,
2013-02-17 02:53:00,24.4,3.1,29.70,NE,45,2.2,3.8,39,0.00,,,0.00,pywws,2013-02-17 07:53:00,
2013-02-17 02:59:00,24.4,3.6,29.70,North,0,3.1,4.5,40,0.00,,,0.00,pywws,2013-02-17 07:59:00,
2013-02-17 03:04:00,24.3,2.4,29.70,NNE,22,2.2,3.8,38,0.00,,,0.00,pywws,2013-02-17 08:04:00,
2013-02-17 03:10:00,24.3,1.8,29.70,North,0,2.2,3.8,37,0.00,,,0.00,pywws,2013-02-17 08:10:00,
2013-02-17 03:16:00,24.1,2.7,29.69,North,0,3.8,6.9,39,0.00,,,0.00,pywws,2013-02-17 08:16:00,
2013-02-17 03:21:00,23.9,2.6,29.70,West,270,3.1,6.0,39,0.00,,,0.00,pywws,2013-02-17 08:21:00,
2013-02-17 03:27:00,23.9,2.6,29.69,ENE,68,6.0,9.2,39,0.00,,,0.00,pywws,2013-02-17 08:27:00,
2013-02-17 03:32:00,23.7,2.4,29.69,SW,225,3.8,6.0,39,0.00,,,0.00,pywws,2013-02-17 08:32:00,
2013-02-17 03:38:00,23.7,3.0,29.70,NW,315,4.5,7.6,40,0.00,,,0.00,pywws,2013-02-17 08:38:00,
2013-02-17 03:44:00,23.5,2.3,29.69,NE,45,3.8,6.0,39,0.00,,,0.00,pywws,2013-02-17 08:44:00,
2013-02-17 03:49:00,23.5,2.8,29.69,NW,315,1.6,3.1,40,0.00,,,0.00,pywws,2013-02-17 08:49:00,
2013-02-17 03:55:00,23.5,3.3,29.69,North,0,2.2,3.1,41,0.00,,,0.00,pywws,2013-02-17 08:55:00,
2013-02-17 04:00:00,23.5,3.3,29.70,NE,45,3.1,5.4,41,0.00,,,0.00,pywws,2013-02-17 09:00:00,
2013-02-17 04:06:00,23.4,3.2,29.70,NE,45,3.8,6.0,41,0.00,,,0.00,pywws,2013-02-17 09:06:00,
2013-02-17 04:12:00,23.4,4.2,29.69,NE,45,3.1,4.5,43,0.00,,,0.00,pywws,2013-02-17 09:12:00,
2013-02-17 04:17:00,23.4,4.2,29.69,North,0,3.1,4.5,43,0.00,,,0.00,pywws,2013-02-17 09:17:00,
2013-02-17 04:23:00,23.4,4.2,29.69,NW,315,2.2,4.5,43,0.00,,,0.00,pywws,2013-02-17 09:23:00,
2013-02-17 04:28:00,23.2,3.5,29.69,NW,315,2.2,3.8,42,0.00,,,0.00,pywws,2013-02-17 09:28:00,
2013-02-17 04:34:00,23.2,4.0,29.69,North,0,3.1,5.4,43,0.00,,,0.00,pywws,2013-02-17 09:34:00,
2013-02-17 04:40:00,23.2,4.0,29.69,SE,135,3.1,4.5,43,0.00,,,0.00,pywws,2013-02-17 09:40:00,
2013-02-17 04:45:00,23.2,4.0,29.69,NNE,22,1.6,3.1,43,0.00,,,0.00,pywws,2013-02-17 09:45:00,
2013-02-17 04:51:00,23.2,3.5,29.68,NW,315,2.2,3.8,42,0.00,,,0.00,pywws,2013-02-17 09:51:00,
2013-02-17 04:56:00,23.0,3.9,29.68,NE,45,3.1,4.5,43,0.00,,,0.00,pywws,2013-02-17 09:56:00,
2013-02-17 05:02:00,23.0,3.9,29.67,North,0,1.6,2.2,43,0.00,,,0.00,pywws,2013-02-17 10:02:00,
2013-02-17 05:08:00,23.0,3.9,29.67,ENE,68,3.8,4.5,43,0.00,,,0.00,pywws,2013-02-17 10:08:00,
2013-02-17 05:13:00,23.0,3.9,29.67,North,0,2.2,3.1,43,0.00,,,0.00,pywws,2013-02-17 10:13:00,
2013-02-17 05:19:00,22.8,4.2,29.67,North,0,1.6,3.1,44,0.00,,,0.00,pywws,2013-02-17 10:19:00,
2013-02-17 05:24:00,22.8,4.2,29.67,North,0,3.1,5.4,44,0.00,,,0.00,pywws,2013-02-17 10:24:00,
2013-02-17 05:30:00,22.8,4.2,29.67,North,0,5.4,6.9,44,0.00,,,0.00,pywws,2013-02-17 10:30:00,
2013-02-17 05:36:00,22.6,4.0,29.67,East,90,1.6,3.1,44,0.00,,,0.00,pywws,2013-02-17 10:36:00,
2013-02-17 05:41:00,22.6,4.0,29.67,North,0,1.6,3.1,44,0.00,,,0.00,pywws,2013-02-17 10:41:00,
2013-02-17 05:47:00,22.6,4.0,29.66,North,0,1.6,2.2,44,0.00,,,0.00,pywws,2013-02-17 10:47:00,
2013-02-17 05:52:00,22.6,4.0,29.66,North,0,3.8,5.4,44,0.00,,,0.00,pywws,2013-02-17 10:52:00,
2013-02-17 05:58:00,22.6,4.0,29.66,NE,45,2.2,4.5,44,0.00,,,0.00,pywws,2013-02-17 10:58:00,
2013-02-17 06:04:00,22.5,3.9,29.66,NNE,22,2.2,3.1,44,0.00,,,0.00,pywws,2013-02-17 11:04:00,
2013-02-17 06:09:00,22.5,3.9,29.66,North,0,3.1,5.4,44,0.00,,,0.00,pywws,2013-02-17 11:09:00,
2013-02-17 06:15:00,22.5,2.9,29.65,NW,315,2.2,3.8,42,0.00,,,0.00,pywws,2013-02-17 11:15:00,
2013-02-17 06:20:00,22.5,3.9,29.66,NE,45,2.2,4.5,44,0.00,,,0.00,pywws,2013-02-17 11:20:00,
2013-02-17 06:26:00,22.3,3.2,29.66,North,0,2.2,4.5,43,0.00,,,0.00,pywws,2013-02-17 11:26:00,
2013-02-17 06:32:00,22.3,3.7,29.66,NE,45,3.8,7.6,44,0.00,,,0.00,pywws,2013-02-17 11:32:00,
2013-02-17 06:37:00,22.3,2.7,29.65,North,0,3.1,6.0,42,0.00,,,0.00,pywws,2013-02-17 11:37:00,
2013-02-17 06:43:00,22.3,3.2,29.65,NW,315,1.6,3.1,43,0.00,,,0.00,pywws,2013-02-17 11:43:00,
2013-02-17 06:48:00,22.3,3.7,29.65,North,0,2.2,3.8,44,0.00,,,0.00,pywws,2013-02-17 11:48:00,
2013-02-17 06:54:00,22.1,2.6,29.64,North,0,3.1,4.5,42,0.00,,,0.00,pywws,2013-02-17 11:54:00,
2013-02-17 07:00:00,22.1,1.5,29.65,NE,45,3.1,4.5,40,0.00,,,0.00,pywws,2013-02-17 12:00:00,
2013-02-17 07:05:00,22.1,2.6,29.65,North,0,2.2,3.8,42,0.00,,,0.00,pywws,2013-02-17 12:05:00,
2013-02-17 07:11:00,22.1,1.5,29.65,North,0,1.6,2.2,40,0.00,,,0.00,pywws,2013-02-17 12:11:00,
2013-02-17 07:16:00,22.1,1.0,29.65,NE,45,2.2,3.1,39,0.00,,,0.00,pywws,2013-02-17 12:16:00,
2013-02-17 07:22:00,22.1,0.4,29.65,North,0,1.6,4.5,38,0.00,,,0.00,pywws,2013-02-17 12:22:00,
2013-02-17 07:28:00,22.1,-0.2,29.65,NW,315,1.6,3.1,37,0.00,,,0.00,pywws,2013-02-17 12:28:00,
2013-02-17 07:33:00,22.3,-0.6,29.65,North,0,1.6,3.1,36,0.00,,,0.00,pywws,2013-02-17 12:33:00,
2013-02-17 07:39:00,22.3,0.0,29.65,NE,45,2.2,4.5,37,0.00,,,0.00,pywws,2013-02-17 12:39:00,
2013-02-17 07:44:00,22.5,0.7,29.65,NW,315,3.1,3.1,38,0.00,,,0.00,pywws,2013-02-17 12:44:00,
2013-02-17 07:50:00,22.5,-0.4,29.65,North,0,4.5,7.6,36,0.00,,,0.00,pywws,2013-02-17 12:50:00,
2013-02-17 07:56:00,22.6,0.3,29.65,North,0,1.6,3.1,37,0.00,,,0.00,pywws,2013-02-17 12:56:00,
2013-02-17 08:01:00,22.8,1.6,29.65,North,0,3.1,4.5,39,0.00,,,0.00,pywws,2013-02-17 13:01:00,
2013-02-17 08:07:00,23.0,0.7,29.65,North,0,2.2,3.1,37,0.00,,,0.00,pywws,2013-02-17 13:07:00,
2013-02-17 08:12:00,23.0,-0.5,29.65,NW,315,4.5,8.3,35,0.00,,,0.00,pywws,2013-02-17 13:12:00,
2013-02-17 08:18:00,23.0,0.1,29.65,NE,45,1.6,3.1,36,0.00,,,0.00,pywws,2013-02-17 13:18:00,
2013-02-17 08:24:00,23.2,0.2,29.65,North,0,2.2,3.8,36,0.00,,,0.00,pywws,2013-02-17 13:24:00,
2013-02-17 08:29:00,23.4,-0.8,29.65,NW,315,2.2,5.4,34,0.00,,,0.00,pywws,2013-02-17 13:29:00,
2013-02-17 08:35:00,23.5,-1.3,29.64,North,0,2.2,3.1,33,0.00,,,0.00,pywws,2013-02-17 13:35:00,
2013-02-17 08:40:00,23.5,-1.3,29.64,NE,45,2.2,3.8,33,0.00,,,0.00,pywws,2013-02-17 13:40:00,
2013-02-17 08:46:00,23.7,-1.1,29.64,North,0,1.6,3.8,33,0.00,,,0.00,pywws,2013-02-17 13:46:00,
2013-02-17 08:52:00,24.1,-0.2,29.64,West,270,1.6,2.2,34,0.00,,,0.00,pywws,2013-02-17 13:52:00,
2013-02-17 08:57:00,24.4,0.8,29.63,North,0,2.2,3.1,35,0.00,,,0.00,pywws,2013-02-17 13:57:00,
2013-02-17 09:03:00,24.8,-0.2,29.64,NE,45,3.1,3.8,33,0.00,,,0.00,pywws,2013-02-17 14:03:00,
2013-02-17 09:08:00,24.6,-0.3,29.64,NW,315,3.1,3.8,33,0.00,,,0.00,pywws,2013-02-17 14:08:00,
2013-02-17 09:14:00,24.6,-2.3,29.64,NW,315,3.1,4.5,30,0.00,,,0.00,pywws,2013-02-17 14:14:00,
2013-02-17 09:20:00,24.8,-5.2,29.64,North,0,3.8,6.0,26,0.00,,,0.00,pywws,2013-02-17 14:20:00,
2013-02-17 09:25:00,25.0,-4.2,29.64,SE,135,4.5,8.3,27,0.00,,,0.00,pywws,2013-02-17 14:25:00,
2013-02-17 09:31:00,25.3,-4.7,29.64,NE,45,3.8,6.9,26,0.00,,,0.00,pywws,2013-02-17 14:31:00,
2013-02-17 09:36:00,25.9,-5.0,29.64,North,0,2.2,3.8,25,0.00,,,0.00,pywws,2013-02-17 14:36:00,
2013-02-17 09:42:00,26.2,-5.6,29.64,SE,135,5.4,11.4,24,0.00,,,0.00,pywws,2013-02-17 14:42:00,
2013-02-17 09:48:00,26.4,-7.2,29.65,North,0,4.5,6.9,22,0.00,,,0.00,pywws,2013-02-17 14:48:00,
2013-02-17 09:53:00,26.8,-7.9,29.65,NW,315,3.1,4.5,21,0.00,,,0.00,pywws,2013-02-17 14:53:00,
2013-02-17 09:59:00,27.9,-6.0,29.65,North,0,6.0,11.4,22,0.00,,,0.00,pywws,2013-02-17 14:59:00,
2013-02-17 10:04:00,28.0,-6.8,29.65,NE,45,3.8,5.4,21,0.00,,,0.00,pywws,2013-02-17 15:04:00,
2013-02-17 10:10:00,27.9,-6.9,29.65,NE,45,3.8,7.6,21,0.00,,,0.00,pywws,2013-02-17 15:10:00,
2013-02-17 10:16:00,28.2,-6.6,29.65,NW,315,3.8,6.0,21,0.00,,,0.00,pywws,2013-02-17 15:16:00,
2013-02-17 10:21:00,28.6,-2.7,29.65,NE,45,4.5,6.0,25,0.00,,,0.00,pywws,2013-02-17 15:21:00,
2013-02-17 10:27:00,28.8,-2.6,29.65,West,270,3.8,6.0,25,0.00,,,0.00,pywws,2013-02-17 15:27:00,
2013-02-17 10:32:00,28.8,-1.7,29.65,North,0,4.5,6.9,26,0.00,,,0.00,pywws,2013-02-17 15:32:00,
2013-02-17 10:38:00,29.1,-2.3,29.65,North,0,5.4,8.3,25,0.00,,,0.00,pywws,2013-02-17 15:38:00,
2013-02-17 10:44:00,30.0,-1.5,29.66,North,0,3.8,7.6,25,0.00,,,0.00,pywws,2013-02-17 15:44:00,
2013-02-17 10:49:00,31.1,-1.4,29.66,North,0,3.1,4.5,24,0.00,,,0.00,pywws,2013-02-17 15:49:00,
2013-02-17 10:55:00,31.3,-1.3,29.67,North,0,3.1,5.4,24,0.00,,,0.00,pywws,2013-02-17 15:55:00,
2013-02-17 11:00:00,31.6,-1.0,29.67,North,0,5.4,8.3,24,0.00,,,0.00,pywws,2013-02-17 16:00:00,
2013-02-17 11:06:00,30.6,-1.9,29.67,North,0,3.8,4.5,24,0.00,,,0.00,pywws,2013-02-17 16:06:00,
2013-02-17 11:12:00,30.6,-1.9,29.67,NE,45,3.8,6.0,24,0.00,,,0.00,pywws,2013-02-17 16:12:00,
2013-02-17 11:17:00,31.1,-1.4,29.67,NW,315,3.1,5.4,24,0.00,,,0.00,pywws,2013-02-17 16:17:00,
2013-02-17 11:23:00,30.4,-2.0,29.67,NW,315,3.1,6.0,24,0.00,,,0.00,pywws,2013-02-17 16:23:00,
2013-02-17 11:28:00,29.8,-1.6,29.67,North,0,3.8,9.8,25,0.00,,,0.00,pywws,2013-02-17 16:28:00,
2013-02-17 11:34:00,30.2,-2.2,29.67,NE,45,3.1,4.5,24,0.00,,,0.00,pywws,2013-02-17 16:34:00,
2013-02-17 11:40:00,30.9,-1.6,29.67,NW,315,4.5,8.3,24,0.00,,,0.00,pywws,2013-02-17 16:40:00,
2013-02-17 11:45:00,31.5,-2.0,29.67,West,270,3.8,6.9,23,0.00,,,0.00,pywws,2013-02-17 16:45:00,
2013-02-17 11:51:00,30.0,-1.5,29.67,NE,45,5.4,8.3,25,0.00,,,0.00,pywws,2013-02-17 16:51:00,
2013-02-17 11:56:00,28.9,-2.4,29.67,North,0,4.5,6.9,25,0.00,,,0.00,pywws,2013-02-17 16:56:00,
2013-02-17 12:02:00,29.1,-2.3,29.67,North,0,5.4,8.3,25,0.00,,,0.00,pywws,2013-02-17 17:02:00,
2013-02-17 12:08:00,29.5,-2.0,29.68,WNW,292,7.6,13.0,25,0.00,,,0.00,pywws,2013-02-17 17:08:00,
2013-02-17 12:13:00,29.5,-2.8,29.68,NW,315,6.9,9.8,24,0.00,,,0.00,pywws,2013-02-17 17:13:00,
2013-02-17 12:19:00,30.0,-2.3,29.68,NW,315,5.4,7.6,24,0.00,,,0.00,pywws,2013-02-17 17:19:00,
2013-02-17 12:24:00,31.3,-2.2,29.67,NE,45,5.4,9.8,23,0.00,,,0.00,pywws,2013-02-17 17:24:00,
2013-02-17 12:30:00,30.9,-2.5,29.68,NW,315,3.8,7.6,23,0.00,,,0.00,pywws,2013-02-17 17:30:00,
2013-02-17 12:36:00,32.4,-1.2,29.67,North,0,3.8,5.4,23,0.00,,,0.00,pywws,2013-02-17 17:36:00,
2013-02-17 12:41:00,32.9,-1.7,29.68,NE,45,4.5,6.9,22,0.00,,,0.00,pywws,2013-02-17 17:41:00,
2013-02-17 12:47:00,33.4,-1.3,29.68,North,0,4.5,6.0,22,0.00,,,0.00,pywws,2013-02-17 17:47:00,
2013-02-17 12:52:00,32.7,-2.9,29.68,NNE,22,10.7,14.5,21,0.00,,,0.00,pywws,2013-02-17 17:52:00,
2013-02-17 12:58:00,32.7,-0.9,29.68,NE,45,5.4,6.9,23,0.00,,,0.00,pywws,2013-02-17 17:58:00,
2013-02-17 13:04:00,32.9,-2.7,29.69,North,0,5.4,7.6,21,0.00,,,0.00,pywws,2013-02-17 18:04:00,
2013-02-17 13:09:00,32.7,-1.9,29.68,NE,45,4.5,8.3,22,0.00,,,0.00,pywws,2013-02-17 18:09:00,
2013-02-17 13:15:00,33.6,-1.1,29.68,NW,315,6.0,8.3,22,0.00,,,0.00,pywws,2013-02-17 18:15:00,
2013-02-17 13:20:00,33.1,-1.6,29.68,NNE,22,4.5,6.0,22,0.00,,,0.00,pywws,2013-02-17 18:20:00,
2013-02-17 13:26:00,33.4,-0.3,29.69,NW,315,6.0,10.7,23,0.00,,,0.00,pywws,2013-02-17 18:26:00,
2013-02-17 13:32:00,33.1,-2.6,29.68,SW,225,7.6,10.7,21,0.00,,,0.00,pywws,2013-02-17 18:32:00,
2013-02-17 13:37:00,32.4,-3.2,29.69,North,0,4.5,6.9,21,0.00,,,0.00,pywws,2013-02-17 18:37:00,
2013-02-17 13:43:00,33.6,-2.1,29.70,West,270,4.5,6.9,21,0.00,,,0.00,pywws,2013-02-17 18:43:00,
2013-02-17 13:48:00,32.9,-3.7,29.70,North,0,6.9,10.7,20,0.00,,,0.00,pywws,2013-02-17 18:48:00,
2013-02-17 13:54:00,32.2,-3.3,29.70,North,0,7.6,11.4,21,0.00,,,0.00,pywws,2013-02-17 18:54:00,
2013-02-17 14:00:00,32.7,-2.9,29.70,West,270,6.0,10.7,21,0.00,,,0.00,pywws,2013-02-17 19:00:00,
2013-02-17 14:05:00,32.2,-3.3,29.70,NE,45,6.0,8.3,21,0.00,,,0.00,pywws,2013-02-17 19:05:00,
2013-02-17 14:11:00,32.2,-3.3,29.70,NW,315,4.5,6.9,21,0.00,,,0.00,pywws,2013-02-17 19:11:00,
2013-02-17 14:16:00,30.7,-4.5,29.70,NW,315,4.5,6.9,21,0.00,,,0.00,pywws,2013-02-17 19:16:00,
2013-02-17 14:22:00,31.6,-2.8,29.70,North,0,3.1,5.4,22,0.00,,,0.00,pywws,2013-02-17 19:22:00,
2013-02-17 14:28:00,30.9,-4.4,29.70,NE,45,5.4,9.2,21,0.00,,,0.00,pywws,2013-02-17 19:28:00,
2013-02-17 14:33:00,30.2,-4.0,29.70,WNW,292,7.6,15.2,22,0.00,,,0.00,pywws,2013-02-17 19:33:00,
2013-02-17 14:39:00,30.4,-3.9,29.70,North,0,3.8,5.4,22,0.00,,,0.00,pywws,2013-02-17 19:39:00,
2013-02-17 14:44:00,31.6,-1.9,29.71,West,270,6.9,10.7,23,0.00,,,0.00,pywws,2013-02-17 19:44:00,
2013-02-17 14:50:00,30.4,-3.9,29.71,North,0,3.8,7.6,22,0.00,,,0.00,pywws,2013-02-17 19:50:00,
2013-02-17 14:56:00,29.5,-3.7,29.71,NW,315,5.4,9.2,23,0.00,,,0.00,pywws,2013-02-17 19:56:00,
2013-02-17 15:01:00,29.1,-3.1,29.71,NW,315,6.0,9.2,24,0.00,,,0.00,pywws,2013-02-17 20:01:00,
2013-02-17 15:07:00,29.7,-3.5,29.72,NW,315,4.5,8.3,23,0.00,,,0.00,pywws,2013-02-17 20:07:00,
2013-02-17 15:12:00,28.9,-4.2,29.72,NW,315,5.4,9.8,23,0.00,,,0.00,pywws,2013-02-17 20:12:00,
2013-02-17 15:18:00,28.9,-3.3,29.72,North,0,6.0,10.7,24,0.00,,,0.00,pywws,2013-02-17 20:18:00,
2013-02-17 15:24:00,27.7,-9.1,29.72,NW,315,6.0,9.2,19,0.00,,,0.00,pywws,2013-02-17 20:24:00,
2013-02-17 15:29:00,27.0,-7.7,29.72,East,90,5.4,7.6,21,0.00,,,0.00,pywws,2013-02-17 20:29:00,
2013-02-17 15:35:00,26.8,-8.8,29.73,West,270,4.5,6.9,20,0.00,,,0.00,pywws,2013-02-17 20:35:00,
2013-02-17 15:40:00,26.2,-8.3,29.73,WSW,248,9.8,13.6,21,0.00,,,0.00,pywws,2013-02-17 20:40:00,
2013-02-17 15:46:00,25.5,-8.0,29.73,West,270,5.4,6.0,22,0.00,,,0.00,pywws,2013-02-17 20:46:00,
2013-02-17 15:52:00,26.2,-7.4,29.73,NW,315,6.0,9.8,22,0.00,,,0.00,pywws,2013-02-17 20:52:00,
2013-02-17 15:57:00,26.8,-7.9,29.73,NW,315,5.4,8.3,21,0.00,,,0.00,pywws,2013-02-17 20:57:00,
2013-02-17 16:03:00,27.0,-7.7,29.73,North,0,6.9,10.7,21,0.00,,,0.00,pywws,2013-02-17 21:03:00,
2013-02-17 16:08:00,26.8,-7.9,29.74,NW,315,4.5,12.1,21,0.00,,,0.00,pywws,2013-02-17 21:08:00,
2013-02-17 16:14:00,26.4,-7.2,29.75,NNE,22,6.0,9.8,22,0.00,,,0.00,pywws,2013-02-17 21:14:00,
2013-02-17 16:20:00,26.1,-7.5,29.75,WNW,292,6.0,9.2,22,0.00,,,0.00,pywws,2013-02-17 21:20:00,
2013-02-17 16:25:00,26.4,-6.3,29.75,NW,315,2.2,3.8,23,0.00,,,0.00,pywws,2013-02-17 21:25:00,
2013-02-17 16:31:00,26.6,-6.1,29.75,North,0,4.5,6.9,23,0.00,,,0.00,pywws,2013-02-17 21:31:00,
2013-02-17 16:36:00,26.1,-7.5,29.76,East,90,3.1,5.4,22,0.00,,,0.00,pywws,2013-02-17 21:36:00,
2013-02-17 16:42:00,25.5,-8.0,29.75,NE,45,6.9,9.2,22,0.00,,,0.00,pywws,2013-02-17 21:42:00,
2013-02-17 16:48:00,24.6,-7.8,29.76,North,0,3.8,4.5,23,0.00,,,0.00,pywws,2013-02-17 21:48:00,
2013-02-17 16:53:00,24.1,-8.3,29.76,NW,315,6.9,9.8,23,0.00,,,0.00,pywws,2013-02-17 21:53:00,
2013-02-17 16:59:00,23.5,-7.9,29.76,North,0,3.8,9.2,24,0.00,,,0.00,pywws,2013-02-17 21:59:00,
2013-02-17 17:04:00,23.0,-6.7,29.77,NW,315,5.4,10.7,26,0.00,,,0.00,pywws,2013-02-17 22:04:00,
2013-02-17 17:10:00,22.6,-7.0,29.77,WNW,292,3.8,5.4,26,0.00,,,0.00,pywws,2013-02-17 22:10:00,
2013-02-17 17:16:00,22.3,-6.6,29.77,NW,315,5.4,11.4,27,0.00,,,0.00,pywws,2013-02-17 22:16:00,
2013-02-17 17:21:00,22.1,-6.7,29.78,NE,45,6.0,10.7,27,0.00,,,0.00,pywws,2013-02-17 22:21:00,
2013-02-17 17:27:00,21.6,-7.2,29.78,North,0,3.8,5.4,27,0.00,,,0.00,pywws,2013-02-17 22:27:00,
2013-02-17 17:32:00,21.4,-7.3,29.78,North,0,4.5,5.4,27,0.00,,,0.00,pywws,2013-02-17 22:32:00,
2013-02-17 17:38:00,21.2,-6.8,29.79,West,270,5.4,10.7,28,0.00,,,0.00,pywws,2013-02-17 22:38:00,
2013-02-17 17:44:00,20.8,-7.1,29.79,North,0,5.4,6.9,28,0.00,,,0.00,pywws,2013-02-17 22:44:00,
2013-02-17 17:49:00,20.7,-6.5,29.80,SW,225,3.8,8.3,29,0.00,,,0.00,pywws,2013-02-17 22:49:00,
2013-02-17 17:55:00,20.7,-6.5,29.80,North,0,4.5,9.8,29,0.00,,,0.00,pywws,2013-02-17 22:55:00,
2013-02-17 18:00:00,20.5,-6.7,29.80,NE,45,5.4,8.3,29,0.00,,,0.00,pywws,2013-02-17 23:00:00,
2013-02-17 18:05:00,20.3,-7.5,29.80,WNW,292,6.0,11.4,28,0.00,,,0.00,pywws,2013-02-17 23:05:00,
2013-02-17 18:11:00,20.1,-7.0,29.82,WNW,292,7.6,11.4,29,0.00,,,0.00,pywws,2013-02-17 23:11:00,
2013-02-17 18:16:00,19.9,-7.1,29.82,North,0,4.5,7.6,29,0.00,,,0.00,pywws,2013-02-17 23:16:00,
2013-02-17 18:22:00,19.9,-7.1,29.82,NW,315,7.6,11.4,29,0.00,,,0.00,pywws,2013-02-17 23:22:00,
2013-02-17 18:28:00,19.8,-6.6,29.83,North,0,3.1,4.5,30,0.00,,,0.00,pywws,2013-02-17 23:28:00,
2013-02-17 18:33:00,19.6,-6.1,29.83,North,0,3.1,4.5,31,0.00,,,0.00,pywws,2013-02-17 23:33:00,
2013-02-17 18:39:00,19.6,-6.1,29.83,North,0,5.4,8.3,31,0.00,,,0.00,pywws,2013-02-17 23:39:00,
2013-02-17 18:44:00,19.4,-6.9,29.84,North,0,6.0,8.3,30,0.00,,,0.00,pywws,2013-02-17 23:44:00,
2013-02-17 18:50:00,19.2,-9.2,29.84,North,0,3.1,5.4,27,0.00,,,0.00,pywws,2013-02-17 23:50:00,
2013-02-17 18:56:00,19.2,-9.2,29.84,NE,45,4.5,6.0,27,0.00,,,0.00,pywws,2013-02-17 23:56:00,
2013-02-17 19:01:00,19.0,-10.1,29.84,West,270,3.8,5.4,26,0.00,,,0.00,pywws,2013-02-18 00:01:00,
2013-02-17 19:07:00,18.9,-11.1,29.84,North,0,4.5,6.9,25,0.00,,,0.00,pywws,2013-02-18 00:07:00,
2013-02-17 19:12:00,18.5,-10.6,29.85,NW,315,4.5,6.0,26,0.00,,,0.00,pywws,2013-02-18 00:12:00,
2013-02-17 19:18:00,18.5,-10.6,29.85,NW,315,3.8,5.4,26,0.00,,,0.00,pywws,2013-02-18 00:18:00,
2013-02-17 19:24:00,18.3,-10.0,29.86,North,0,6.9,9.2,27,0.00,,,0.00,pywws,2013-02-18 00:24:00,
2013-02-17 19:29:00,18.0,-10.3,29.86,NW,315,3.8,6.0,27,0.00,,,0.00,pywws,2013-02-18 00:29:00,
2013-02-17 19:35:00,17.8,-10.5,29.86,NE,45,3.1,4.5,27,0.00,,,0.00,pywws,2013-02-18 00:35:00,
2013-02-17 19:40:00,17.6,-8.5,29.86,NE,45,4.5,6.0,30,0.00,,,0.00,pywws,2013-02-18 00:40:00,
2013-02-17 19:46:00,17.4,-8.0,29.86,North,0,3.8,5.4,31,0.00,,,0.00,pywws,2013-02-18 00:46:00,
2013-02-17 19:52:00,17.4,-7.3,29.86,NW,315,3.1,3.8,32,0.00,,,0.00,pywws,2013-02-18 00:52:00,
2013-02-17 19:57:00,17.2,-6.9,29.86,NW,315,3.8,5.4,33,0.00,,,0.00,pywws,2013-02-18 00:57:00,
2013-02-17 20:03:00,17.2,-6.3,29.87,North,0,3.8,6.0,34,0.00,,,0.00,pywws,2013-02-18 01:03:00,
2013-02-17 20:08:00,17.1,-5.8,29.87,North,0,4.5,9.2,35,0.00,,,0.00,pywws,2013-02-18 01:08:00,
2013-02-17 20:14:00,16.7,-6.1,29.87,NW,315,3.8,6.9,35,0.00,,,0.00,pywws,2013-02-18 01:14:00,
2013-02-17 20:20:00,16.5,-6.3,29.88,NW,315,3.1,5.4,35,0.00,,,0.00,pywws,2013-02-18 01:20:00,
2013-02-17 20:25:00,16.3,-5.9,29.88,North,0,3.8,5.4,36,0.00,,,0.00,pywws,2013-02-18 01:25:00,
2013-02-17 20:31:00,16.2,-6.0,29.88,NW,315,4.5,7.6,36,0.00,,,0.00,pywws,2013-02-18 01:31:00,
2013-02-17 20:36:00,16.0,-6.8,29.88,North,0,5.4,8.3,35,0.00,,,0.00,pywws,2013-02-18 01:36:00,
2013-02-17 20:42:00,15.6,-6.5,29.88,NE,45,4.5,6.9,36,0.00,,,0.00,pywws,2013-02-18 01:42:00,
2013-02-17 20:48:00,15.4,-6.7,29.89,North,0,5.4,7.6,36,0.00,,,0.00,pywws,2013-02-18 01:48:00,
2013-02-17 20:53:00,15.1,-7.6,29.89,North,0,5.4,7.6,35,0.00,,,0.00,pywws,2013-02-18 01:53:00,
2013-02-17 20:59:00,14.9,-7.7,29.90,NE,45,5.4,13.6,35,0.00,,,0.00,pywws,2013-02-18 01:59:00,
2013-02-17 21:04:00,14.9,-8.3,29.90,North,0,6.0,12.1,34,0.00,,,0.00,pywws,2013-02-18 02:04:00,
2013-02-17 21:10:00,14.7,-8.5,29.90,NW,315,4.5,6.0,34,0.00,,,0.00,pywws,2013-02-18 02:10:00,
2013-02-17 21:16:00,14.5,-8.7,29.90,NW,315,6.0,9.8,34,0.00,,,0.00,pywws,2013-02-18 02:16:00,
2013-02-17 21:21:00,14.5,-8.7,29.91,NW,315,6.0,9.8,34,0.00,,,0.00,pywws,2013-02-18 02:21:00,
2013-02-17 21:27:00,14.4,-9.4,29.91,WNW,292,4.5,6.0,33,0.00,,,0.00,pywws,2013-02-18 02:27:00,
2013-02-17 21:32:00,14.4,-8.8,29.91,North,0,6.0,7.6,34,0.00,,,0.00,pywws,2013-02-18 02:32:00,
2013-02-17 21:38:00,14.2,-9.6,29.91,NW,315,5.4,9.2,33,0.00,,,0.00,pywws,2013-02-18 02:38:00,
2013-02-17 21:44:00,14.2,-9.6,29.91,North,0,4.5,9.8,33,0.00,,,0.00,pywws,2013-02-18 02:44:00,
2013-02-17 21:49:00,14.2,-9.0,29.92,NE,45,3.1,4.5,34,0.00,,,0.00,pywws,2013-02-18 02:49:00,
2013-02-17 21:55:00,14.0,-9.1,29.92,East,90,6.0,8.3,34,0.00,,,0.00,pywws,2013-02-18 02:55:00,
2013-02-17 22:00:00,14.0,-9.1,29.92,West,270,3.8,5.4,34,0.00,,,0.00,pywws,2013-02-18 03:00:00,
2013-02-17 22:06:00,14.0,-8.6,29.92,North,0,5.4,8.3,35,0.00,,,0.00,pywws,2013-02-18 03:06:00,
2013-02-17 22:12:00,14.0,-8.6,29.92,East,90,4.5,7.6,35,0.00,,,0.00,pywws,2013-02-18 03:12:00,
2013-02-17 22:17:00,14.0,-8.6,29.92,NE,45,6.0,10.7,35,0.00,,,0.00,pywws,2013-02-18 03:17:00,
2013-02-17 22:23:00,14.2,-8.4,29.93,NW,315,6.0,9.8,35,0.00,,,0.00,pywws,2013-02-18 03:23:00,
2013-02-17 22:28:00,14.0,-8.6,29.93,WNW,292,3.8,5.4,35,0.00,,,0.00,pywws,2013-02-18 03:28:00,
2013-02-17 22:34:00,14.0,-8.6,29.93,NW,315,3.8,5.4,35,0.00,,,0.00,pywws,2013-02-18 03:34:00,
2013-02-17 22:40:00,14.0,-8.6,29.93,NW,315,5.4,9.8,35,0.00,,,0.00,pywws,2013-02-18 03:40:00,
2013-02-17 22:45:00,14.0,-8.6,29.93,North,0,5.4,8.3,35,0.00,,,0.00,pywws,2013-02-18 03:45:00,
2013-02-17 22:51:00,14.2,-8.4,29.93,NE,45,7.6,13.6,35,0.00,,,0.00,pywws,2013-02-18 03:51:00,
2013-02-17 22:56:00,14.2,-7.8,29.93,WSW,248,6.9,17.5,36,0.00,,,0.00,pywws,2013-02-18 03:56:00,
2013-02-17 23:02:00,14.2,-7.8,29.93,North,0,4.5,9.2,36,0.00,,,0.00,pywws,2013-02-18 04:02:00,
2013-02-17 23:08:00,14.2,-7.3,29.93,NE,45,6.0,12.1,37,0.00,,,0.00,pywws,2013-02-18 04:08:00,
2013-02-17 23:13:00,14.4,-7.7,29.93,North,-999,4.5,7.6,36,0.00,,,0.00,pywws,2013-02-18 04:13:00,
2013-02-17 23:19:00,14.4,-7.1,29.94,North,0,5.4,9.2,37,0.00,,,0.00,pywws,2013-02-18 04:19:00,
2013-02-17 23:24:00,14.4,-7.7,29.93,North,0,6.9,8.3,36,0.00,,,0.00,pywws,2013-02-18 04:24:00,
2013-02-17 23:30:00,14.5,-6.9,29.93,NW,315,3.8,6.9,37,0.00,,,0.00,pywws,2013-02-18 04:30:00,
2013-02-17 23:36:00,14.5,-6.4,29.93,SW,225,6.0,9.8,38,0.00,,,0.00,pywws,2013-02-18 04:36:00,
2013-02-17 23:41:00,14.5,-6.9,29.93,North,-999,4.5,6.0,37,0.00,,,0.00,pywws,2013-02-18 04:41:00,
2013-02-17 23:47:00,14.5,-6.9,29.94,NE,45,4.5,7.6,37,0.00,,,0.00,pywws,2013-02-18 04:47:00,
2013-02-17 23:52:00,14.5,-6.9,29.94,WSW,248,8.3,12.1,37,0.00,,,0.00,pywws,2013-02-18 04:52:00,
2013-02-17 23:58:00,14.7,-6.2,29.93,North,0,3.8,6.0,38,0.00,,,0.00,pywws,2013-02-18 04:58:00,